[Iaude] MPEC G82: 2017 GN6 [a=1.67,e=0.40,i=2.2,H=27.9]

mpec at si.edu mpec at si.edu
Mon Apr 10 18:31:55 EDT 2017


M.P.E.C. 2017-G82                                Issued 2017 Apr. 10, 22:27 UT
 
     The Minor Planet Electronic Circulars contain information on unusual
         minor planets and routine data on comets.  They are published
    on behalf of Division F of the International Astronomical Union by the
          Minor Planet Center, Smithsonian Astrophysical Observatory,
                          Cambridge, MA 02138, U.S.A.

             Prepared using the Tamkin Foundation Computer Network

                              MPC at CFA.HARVARD.EDU
            URL http://www.minorplanetcenter.net/    ISSN 1523-6714


                                   2017 GN6
 
Observations:
     K17G06N* C2017 04 05.40755 13 45 18.49 +20 40 23.5          20.1 VqEG082G96
     K17G06N  C2017 04 05.41182 13 45 33.34 +20 39 03.0          21.3 VqEG082G96
     K17G06N  C2017 04 05.41607 13 45 47.94 +20 37 42.4          19.8 VqEG082G96
     K17G06N  C2017 04 05.42032 13 46 02.99 +20 36 20.0          20.1 VqEG082G96
     K17G06N  C2017 04 05.45568 13 48 06.71 +20 24 55.8          19.6 VqEG082I52
     K17G06N  C2017 04 05.45598 13 48 07.76 +20 24 50.0          19.6 VqEG082I52
     K17G06N  C2017 04 05.45628 13 48 08.82 +20 24 44.0          19.5 VqEG082I52
     K17G06N  C2017 04 05.45658 13 48 09.84 +20 24 38.2          19.4 VqEG082I52
     K17G06N  C2017 04 05.48288 13 49 42.03 +20 16 03.3          19.5 VqEG082I52
     K17G06N  C2017 04 05.48684 13 49 55.84 +20 14 45.5          18.9 VqEG082I52
     K17G06N  C2017 04 05.49079 13 50 09.72 +20 13 27.8          19.3 VqEG082I52
     K17G06N  C2017 04 05.49476 13 50 23.67 +20 12 09.5          19.2 VqEG082I52
     K17G06N  C2017 04 05.49837 13 50 36.29 +20 10 58.6          19.4 VqEG082I52
     K17G06N  C2017 04 05.49866 13 50 37.32 +20 10 52.6          19.5 VqEG082I52
     K17G06N  C2017 04 05.49896 13 50 38.40 +20 10 46.8          19.3 VqEG082I52
     K17G06N  C2017 04 05.49926 13 50 39.41 +20 10 41.3          19.5 VqEG082I52
     K17G06N KC2017 04 06.08364814 24 05.97 +17 07 17.5          19.5 GUEG082J95
     K17G06N KC2017 04 06.10198414 24 58.84 +17 01 40.0                UEG082J95
     K17G06N KC2017 04 06.10908114 25 19.19 +16 59 29.4          19.4 GUEG082J95
     K17G06N  C2017 04 06.24584 14 32 46.89 +16 21 02.7          19.7 VqEG082G96
     K17G06N  C2017 04 06.24762 14 32 51.85 +16 20 32.0          19.6 VqEG082G96
     K17G06N  C2017 04 06.25126 14 33 01.81 +16 19 28.8          19.6 VqEG082G96
     K17G06N  C2017 04 06.25167 14 33 02.89 +16 19 22.6                qEG082G96
     K17G06N KC2017 04 07.31193015 16 04.07 +11 30 00.3          20.2 VuEG082H21
     K17G06N KC2017 04 07.31485715 16 09.47 +11 29 17.9          20.1 VuEG082H21
     K17G06N KC2017 04 07.32020615 16 19.34 +11 28 00.7          20.3 VuEG082H21
     K17G06N  C2017 04 07.36358 15 17 51.97 +11 18 38.5          20.1 VqEG082G96
     K17G06N  C2017 04 07.36399 15 17 52.67 +11 18 33.9          20.5 VqEG082G96
     K17G06N  C2017 04 07.36439 15 17 53.38 +11 18 28.1          20.8 VqEG082G96
     K17G06N  C2017 04 07.36495 15 17 54.39 +11 18 19.9          20.4 VqEG082G96
     K17G06N  C2017 04 07.39227 15 18 43.14 +11 11 51.1          20.3 VqEG082G96
     K17G06N  C2017 04 07.39654 15 18 50.71 +11 10 50.8          20.1 VqEG082G96
     K17G06N  C2017 04 07.40079 15 18 58.22 +11 09 50.0          20.4 VqEG082G96
     K17G06N  C2017 04 07.40705 15 19 09.45 +11 08 20.4          20.1 VqEG082G96
     K17G06N  C2017 04 07.44486 15 20 15.80 +10 59 32.0          19.8 RoEG082926
     K17G06N  C2017 04 07.44756 15 20 20.52 +10 58 53.6          20.0 RoEG082926
     K17G06N  C2017 04 07.45025 15 20 25.19 +10 58 15.4          20.0 RoEG082926
     K17G06N KC2017 04 08.12923 15 40 19.23 +08 29 31.6                UEG082J95
     K17G06N KC2017 04 08.14317 15 40 38.94 +08 26 47.3                UEG082J95
     K17G06N KC2017 04 08.15527 15 40 56.14 +08 24 24.5          20.2 GUEG082J95
     K17G06N  C2017 04 09.46443 16 08 42.78 +04 51 15.5          20.5 RoEG082926
     K17G06N  C2017 04 09.46779 16 08 45.69 +04 50 46.9          20.7 RoEG082926
 
Observer details:
926 Tenagra II Observatory.  Observers M. Schwartz, P. R. Holvorcem.  Measurer
    M. Schwartz.  0.81-m f/7 Ritchey-Chretien + CCD.
G96 Mt. Lemmon Survey.  Observers R. G. Matheny, D. C. Fuls.  Measurers
    E. J. Christensen, D. C. Fuls, A. R. Gibbs, A. D. Grauer, J. A. Johnson,
    R. A. Kowalski, S. M. Larson, G. J. Leonard, R. G. Matheny, R. L. Seaman,
    F. C. Shelly.  1.5-m reflector + 10K CCD.
H21 Astronomical Research Observatory, Westfield.  Observer R. Holmes.
    Measurers S. Foglia, L. Buzzi, T. Linder, R. Holmes.  0.76-m f/3.0
    astrograph + CCD.
I52 Steward Observatory, Mt. Lemmon Station.  Observer E. J. Christensen.
    Measurers E. J. Christensen, D. C. Fuls, A. R. Gibbs, A. D. Grauer,
    J. A. Johnson, R. A. Kowalski, S. M. Larson, G. J. Leonard, R. G. Matheny,
    R. L. Seaman, F. C. Shelly.  1.0-m reflector + CCD.
J95 Great Shefford.  Observer P. Birtwhistle.  0.40-m f/6.0 Schmidt-Cassegrain
    + CCD.
 
Orbital elements:
2017 GN6                                                 Earth MOID = 0.0070 AU
Epoch 2017 Feb. 16.0 TT = JDT 2457800.5                 MPC
M 342.22911              (2000.0)            P               Q
n   0.45805660     Peri.  357.07929     -0.99693373     +0.07809677
a   1.6666969      Node   187.40524     -0.07100047     -0.92912564
e   0.3970850      Incl.    2.17979     -0.03289484     -0.36142281
P   2.15           H   27.9           G   0.15           U   6
Residuals in seconds of arc
170405 G96  1.1+  0.7-    170405 I52  0.2+  0.0     170407 G96  0.1-  0.1+
170405 G96  0.2-  0.3+    170405 I52  0.4-  0.4+    170407 G96  0.0   0.1-
170405 G96 (3.9-  1.1+)   170406 J95  0.1+  0.0     170407 G96  0.5-  0.2-
170405 G96  1.3-  0.2+    170406 J95  0.5+  0.2-    170407 G96  0.6-  0.3+
170405 I52  0.3-  0.0     170406 J95  0.1-  0.1+    170407 G96  0.8-  0.0
170405 I52  0.3-  0.0     170406 G96  1.1-  0.3+    170407 G96 (1.6+  0.5-)
170405 I52  0.1-  0.1-    170406 G96  0.1+  0.2+    170407 926  0.7+  0.1-
170405 I52  0.5-  0.1-    170406 G96  0.3+  0.4-    170407 926  0.6+  0.1-
170405 I52  0.9+  0.2-    170406 G96  0.3-  0.5+    170407 926  0.2+  0.0
170405 I52  0.1-  0.2-    170407 H21  0.1-  0.1+    170408 J95  0.3+  0.1+
170405 I52  0.2+  0.1-    170407 H21  0.1-  0.0     170408 J95  0.8-  0.2+
170405 I52  0.5+  0.2-    170407 H21  0.1+  0.1+    170408 J95  0.3+  0.1-
170405 I52  0.3-  0.2+    170407 G96  0.6+  1.0-    170409 926  0.6+  0.0
170405 I52  0.1-  0.1-    170407 G96  0.1+  0.2+    170409 926  0.3-  0.7-

Ephemeris:
2017 GN6                 a,e,i = 1.67, 0.40, 2                   q = 1.0049
Date    TT    R. A. (2000) Decl.     Delta      r     Elong.  Phase     V
2017 03 11    06 34 58.6 +12 34 28   0.07554 1.0192   108.0    68.0    24.7
...
2017 03 26    07 16 17.3 +17 30 34   0.03098 1.0049   102.9    75.4    23.0
...
2017 04 03    10 49 33.1 +27 57 58   0.01114 1.0079   136.1    43.4    19.8
...
2017 04 09    16 00 09.9 +06 02 53   0.01850 1.0148   135.6    43.7    21.0
2017 04 10    16 17 24.3 +03 45 35   0.02121 1.0163   132.8    46.3    21.3
2017 04 11    16 30 31.4 +01 58 48   0.02404 1.0180   130.9    48.1    21.7
...
2017 04 17    17 09 03.5 -03 30 30   0.04209 1.0301   127.7    50.4    23.0
...
2017 04 25    17 23 58.9 -06 14 45   0.06703 1.0518   131.8    45.5    23.9
...
2017 05 10    17 24 08.2 -08 41 38   0.1162  1.1075   145.6    31.0    24.8

A. U. Tomatic                (C) Copyright 2017 MPC           M.P.E.C. 2017-G82




More information about the Iaude mailing list